[[{"header":{"parameterUnit":"m.s-1","parameterCategory":1,"la1":30.2991,"la2":30.254,"lo1":-89.0895,"lo2":-89.0444,"dy":0.0017,"dx":0.0017,"nx":28,"ny":28,"refTime":"2025-09-14T21:00:00:Z","depth":0,"parameterNumber":2,"parameterNumberName":"U-component_of_WINDS"},"data":[0,0,0,0,0,0,0,0,0,0,0,0,0,0,0,0,0,0,0,0,0,0,0,0,0,0,0,0,0,0,0,0,0,0,0,0,0,0,0,0,0,0,0,0,0,0,0,0,0,0,0,0,0,0,0,0,0,0,-2.0666,-2.0667,0,-2.0728,-2.0729,-2.073,-2.072,-2.0719,-2.0718,-2.0717,-2.078,-2.0783,-2.0785,0,0,0,0,0,0,0,0,0,0,0,0,0,-2.054,-2.0543,-2.0666,-2.0667,-2.0668,-2.0728,-2.0729,-2.073,-2.072,-2.0719,-2.0718,-2.0716,-2.0779,-2.0782,-2.0786,0,0,0,0,0,0,0,0,0,0,0,0,0,-2.0598,-2.0543,-2.0666,-2.067,-2.0671,-2.0728,-2.0729,-2.073,-2.072,-2.0719,-2.0717,-2.0716,-2.0778,-2.0782,-2.0786,-2.0843,0,0,-2.0798,-2.08,0,0,0,0,0,0,0,0,-2.0595,-2.0602,-2.0669,-2.067,-2.0671,-2.0715,-2.0708,-2.0768,-2.0721,-2.0702,-2.0717,-2.0715,-2.076,-2.0765,-2.078,-2.0846,-2.0848,-2.0799,-2.0801,-2.0803,-2.0804,0,0,0,0,0,0,0,-2.0591,-2.06,-2.0691,-2.067,-2.0671,-2.0669,-2.0676,-2.0719,-2.0739,-2.0703,-2.0703,-2.071,-2.076,-2.0776,-2.0782,-2.0849,-2.0799,-2.0802,-2.0805,-2.0806,-2.0965,-2.0967,0,0,0,0,0,0,-2.0585,-2.0596,-2.0689,-2.0693,-2.0628,-2.0673,-2.068,-2.0702,-2.0738,-2.0742,-2.0711,-2.071,-2.077,-2.0777,-2.0784,-2.0853,-2.0803,-2.0807,-2.0809,-2.0963,-2.0965,-2.0967,0,0,0,0,0,0,-2.0583,-2.0594,-2.0686,-2.0644,-2.0656,-2.0677,-2.0702,-2.0704,-2.0721,-2.0745,-2.0748,-2.0725,-2.0769,-2.0778,-2.0828,-2.0855,-2.0808,-2.0812,-2.0961,-2.0964,-2.0966,-2.0991,0,0,0,0,0,0,-2.0579,-2.0593,-2.0614,-2.0645,-2.0658,-2.073,-2.0704,-2.0707,-2.0728,-2.0726,-2.0758,-2.0761,-2.0769,-2.0822,-2.0832,-2.086,-2.0815,-2.0959,-2.0962,-2.0966,-2.0988,-2.0995,-2.1,0,0,0,0,0,-2.0575,-2.0619,-2.0615,-2.0627,-2.0686,-2.0731,-2.0739,-2.0746,-2.073,-2.0752,-2.0767,-2.076,-2.0851,-2.0828,-2.0839,-2.0868,-2.0957,-2.0961,-2.0965,-2.0986,-2.0993,-2.1,0,0,0,0,0,0,-2.059,-2.0623,-2.0619,-2.0675,-2.07,-2.0729,-2.0757,-2.0754,-2.0785,-2.0782,-2.079,-2.0797,-2.0848,-2.0863,-2.0837,-2.0925,-2.0902,-2.0908,-2.0913,-2.0921,-2.0927,-2.0922,-2.0818,0,0,0,0,0,-2.06,-2.0634,-2.0661,-2.0707,-2.072,-2.0737,-2.0757,-2.076,-2.0787,-2.0798,-2.0817,-2.0843,-2.0878,-2.09,-2.0933,-2.099,-2.0998,-2.1016,-2.1022,-2.1027,-2.1032,-2.1064,-2.1073,-2.0981,-2.0981,-2.0981,0,0,-2.0621,-2.0643,-2.0664,-2.0711,-2.0731,-2.0767,-2.0746,-2.0784,-2.0811,-2.0804,-2.0852,-2.0867,-2.0897,-2.0952,-2.0977,-2.0966,-2.1059,-2.1032,-2.1035,-2.1038,-2.107,-2.1078,-2.1086,-2.0984,-2.0983,-2.0983,0,0,-2.0677,-2.0697,-2.0738,-2.0759,-2.079,-2.0801,-2.0811,-2.0841,-2.085,-2.0899,-2.0895,-2.0927,-2.0986,-2.1007,-2.1026,-2.1092,-2.1087,-2.1102,-2.1133,-2.1164,-2.1172,-2.1178,-2.1202,-2.121,-2.1108,-2.1108,-2.1108,0,-2.0699,-2.0752,-2.0759,-2.0798,-2.0819,-2.0815,-2.0857,-2.0877,-2.0917,-2.0932,-2.0919,-2.0993,-2.1013,-2.1073,-2.1089,-2.1104,-2.1116,-2.1098,-2.117,-2.1177,-2.1183,-2.1206,-2.1214,-2.1109,-2.1109,-2.1109,-2.1109,0,-2.0778,-2.0815,-2.0844,-2.0884,-2.0908,-2.0948,-2.0962,-2.0986,-2.0987,-2.1,-2.105,-2.1074,-2.1112,-2.1126,-2.1128,-2.1187,-2.1179,-2.1168,-2.1145,-2.1193,-2.1215,-2.1224,-2.1112,-2.1111,-2.1111,-2.111,0,0,-2.0845,-2.0889,-2.0899,-2.0917,-2.0952,-2.0981,-2.1021,-2.1058,-2.1079,-2.1107,-2.1141,-2.1191,-2.1182,-2.1203,-2.1208,-2.1235,-2.1286,-2.1221,-2.1222,-2.1233,-2.1353,-2.1361,-2.1371,-2.1283,-2.1285,-2.1286,-2.1351,0,-2.0905,-2.0976,-2.0984,-2.1048,-2.1083,-2.1079,-2.1115,-2.114,-2.1152,-2.1184,-2.1198,-2.1234,-2.1218,-2.1231,-2.1258,-2.1274,-2.131,-2.127,-2.1316,-2.1317,-2.1308,-2.1382,-2.1391,-2.1451,-2.1359,-2.136,-2.1361,0,-2.0984,-2.1015,-2.1082,-2.1112,-2.1127,-2.1159,-2.1194,-2.1224,-2.1252,-2.126,-2.1284,-2.1285,-2.1327,-2.1302,-2.1361,-2.1333,-2.1352,-2.1363,-2.1366,-2.137,-2.1342,-2.1389,-2.147,-2.1479,-2.1375,-2.1374,-2.1373,0,-2.1028,-2.1086,-2.1133,-2.1149,-2.1185,-2.1207,-2.1224,-2.1251,-2.1273,-2.1304,-2.1318,-2.1353,-2.1373,-2.14,-2.1411,-2.1392,-2.1469,-2.1445,-2.1477,-2.1477,-2.1493,-2.1492,-2.1578,-2.1505,-2.1505,-2.1505,-2.1505,0,-2.1094,-2.1135,-2.1153,-2.1183,-2.1229,-2.1238,-2.1284,-2.1299,-2.1323,-2.1356,-2.1355,-2.1386,-2.1398,-2.1431,-2.144,-2.1487,-2.1496,-2.1503,-2.1505,-2.1504,-2.1503,-2.1516,-2.1513,-2.1507,-2.1507,-2.1506,-2.1506,0,-2.115,-2.1164,-2.1216,-2.1246,-2.1254,-2.1287,-2.1313,-2.1342,-2.1355,-2.1396,-2.1406,-2.1426,-2.1465,-2.1478,-2.1525,-2.1531,-2.1586,-2.1584,-2.1577,-2.1577,-2.1608,-2.1605,-2.1706,-2.172,-2.1638,-2.1639,-2.1639,0,-2.1191,-2.1223,-2.1257,-2.1279,-2.1296,-2.1331,-2.1353,-2.1364,-2.1387,-2.1423,-2.1447,-2.1486,-2.1517,-2.1579,-2.1598,-2.1634,-2.1633,-2.1666,-2.1639,-2.1636,-2.1634,-2.1633,-2.1636,-2.1671,-2.1672,-2.1673,-2.1674,0,-2.1264,-2.1269,-2.1302,-2.1337,-2.1364,-2.1393,-2.142,-2.1438,-2.1453,-2.1479,-2.1519,-2.1543,-2.1591,-2.163,-2.1667,-2.1684,-2.1682,-2.1682,-2.1691,-2.169,-2.1685,-2.1689,-2.1591,-2.168,-2.1679,-2.1679,-2.1678,-2.1678,-2.1315,-2.1343,-2.1371,-2.1408,-2.1429,-2.1455,-2.1484,-2.15,-2.1533,-2.1573,-2.1577,-2.162,-2.1649,-2.1698,-2.1717,-2.1751,-2.1742,-2.1755,-2.1758,-2.1762,-2.1764,-2.1679,-2.1757,-2.1757,-2.1757,-2.1757,-2.1757,0,-2.1388,-2.1406,-2.1439,-2.1478,-2.1507,-2.1502,-2.1532,-2.1557,-2.1594,-2.1621,-2.1652,-2.1698,-2.1735,-2.1757,-2.1795,-2.1818,-2.1818,-2.1827,-2.1826,-2.183,-2.177,-2.1758,-2.1827,-2.1827,-2.1827,-2.1827,-2.1827,-2.1827,-2.1429,-2.1477,-2.1486,-2.1545,-2.1562,-2.1604,-2.1622,-2.1646,-2.1668,-2.1719,-2.175,-2.1764,-2.1789,-2.1828,-2.1863,-2.1868,-2.1882,-2.1893,-2.1898,-2.1841,-2.1834,-2.1827,-2.1816,-2.1896,-2.1896,-2.1955,-2.1955,-2.1956]},{"header":{"parameterUnit":"m.s-1","parameterCategory":1,"la1":30.2991,"la2":30.254,"lo1":-89.0895,"lo2":-89.0444,"dy":0.0017,"dx":0.0017,"nx":28,"ny":28,"refTime":"2025-09-14T21:00:00:Z","depth":0,"parameterNumber":3,"parameterNumberName":"V-component_of_WINDS"},"data":[0,0,0,0,0,0,0,0,0,0,0,0,0,0,0,0,0,0,0,0,0,0,0,0,0,0,0,0,0,0,0,0,0,0,0,0,0,0,0,0,0,0,0,0,0,0,0,0,0,0,0,0,0,0,0,0,0,0,4.4087,4.4087,0,4.4055,4.4055,4.4054,4.3995,4.3994,4.3993,4.3992,4.396,4.396,4.396,0,0,0,0,0,0,0,0,0,0,0,0,0,4.4099,4.4099,4.4087,4.4087,4.4087,4.4055,4.4055,4.4054,4.3995,4.3994,4.3993,4.3991,4.396,4.396,4.396,0,0,0,0,0,0,0,0,0,0,0,0,0,4.4083,4.4099,4.4087,4.4053,4.405,4.4055,4.4055,4.4054,4.3996,4.3994,4.3992,4.3991,4.396,4.396,4.396,4.3996,0,0,4.3961,4.3961,0,0,0,0,0,0,0,0,4.4084,4.4083,4.4059,4.4056,4.4052,4.4027,4.4047,4.4035,4.3996,4.4016,4.3992,4.399,4.3984,4.3982,4.398,4.3995,4.3993,4.3961,4.3961,4.3961,4.3961,0,0,0,0,0,0,0,4.4085,4.4084,4.4075,4.4058,4.4054,4.404,4.4036,4.4044,4.401,4.4014,4.401,4.4007,4.3981,4.3979,4.3978,4.3993,4.3961,4.3961,4.3962,4.3962,4.4035,4.4037,0,0,0,0,0,0,4.4091,4.4085,4.4076,4.4074,4.4064,4.4041,4.4037,4.4037,4.401,4.4004,4.4009,4.4004,4.398,4.3978,4.3977,4.4016,4.3961,4.3962,4.3962,4.4033,4.4035,4.4037,0,0,0,0,0,0,4.4091,4.4091,4.4077,4.4078,4.4075,4.4043,4.4044,4.4037,4.4035,4.4005,4.3999,4.4013,4.3978,4.3977,4.3992,4.4014,4.3962,4.3962,4.4031,4.4034,4.4036,4.4095,0,0,0,0,0,0,4.4092,4.4091,4.4104,4.4079,4.4075,4.4092,4.4045,4.4038,4.4036,4.403,4.4007,4.4002,4.3977,4.3991,4.3992,4.4014,4.3962,4.4029,4.4032,4.4036,4.4091,4.41,4.4107,0,0,0,0,0,4.4093,4.4122,4.4105,4.4104,4.4091,4.4093,4.4091,4.4061,4.4038,4.4051,4.4032,4.4003,4.4012,4.3994,4.3994,4.4016,4.4027,4.4031,4.4035,4.4087,4.4098,4.4107,0,0,0,0,0,0,4.4151,4.4118,4.4099,4.4121,4.4111,4.4083,4.4098,4.4074,4.4069,4.4064,4.4028,4.4023,4.4043,4.4031,4.4011,4.4049,4.4015,4.4019,4.4055,4.4065,4.4072,4.4073,4.3963,0,0,0,0,0,4.4167,4.4171,4.4143,4.4165,4.4161,4.4131,4.4131,4.4109,4.4096,4.4091,4.4073,4.4062,4.4062,4.4063,4.4062,4.409,4.4084,4.4106,4.4113,4.412,4.4123,4.4136,4.4145,4.405,4.405,4.405,0,0,4.4199,4.4182,4.4187,4.4177,4.4165,4.4171,4.4127,4.4135,4.4138,4.4092,4.4104,4.4092,4.4077,4.4098,4.4107,4.4089,4.4148,4.4125,4.4131,4.413,4.4141,4.415,4.4158,4.4053,4.4053,4.4052,0,0,4.4259,4.4248,4.4264,4.4254,4.4238,4.4218,4.4223,4.4199,4.4189,4.4201,4.4166,4.417,4.4172,4.4162,4.4158,4.4217,4.4189,4.4218,4.4257,4.427,4.4278,4.4284,4.4303,4.431,4.4221,4.4222,4.4222,0,4.4301,4.4307,4.4276,4.4285,4.4282,4.4241,4.4258,4.425,4.4235,4.4233,4.4214,4.4215,4.4202,4.422,4.4234,4.4233,4.4236,4.4218,4.4279,4.4285,4.4291,4.4308,4.4315,4.4225,4.4224,4.4224,4.4224,0,4.4358,4.4363,4.4379,4.4364,4.4363,4.4376,4.4347,4.435,4.4329,4.4311,4.4324,4.4308,4.4302,4.4305,4.4285,4.432,4.4309,4.4286,4.4251,4.4303,4.4319,4.4326,4.423,4.4228,4.4227,4.4227,0,0,4.4452,4.4421,4.4427,4.442,4.44,4.4403,4.4415,4.4409,4.4411,4.4403,4.4411,4.4414,4.4392,4.4387,4.4365,4.4377,4.4422,4.4351,4.435,4.4363,4.4458,4.4474,4.4482,4.4405,4.4406,4.4407,4.4458,0,4.4506,4.4523,4.4496,4.4519,4.4523,4.4486,4.4496,4.4485,4.4469,4.447,4.4453,4.4455,4.4426,4.4423,4.4433,4.4414,4.444,4.4411,4.4411,4.4411,4.4413,4.4491,4.4508,4.4557,4.4464,4.4466,4.4466,0,4.4571,4.4565,4.4588,4.4567,4.4567,4.4577,4.4569,4.4571,4.4558,4.4546,4.4541,4.4516,4.4526,4.4494,4.4507,4.4487,4.4486,4.4478,4.4479,4.4475,4.444,4.4487,4.4572,4.4578,4.4476,4.4475,4.4475,0,4.4634,4.4633,4.4646,4.4641,4.4617,4.4624,4.4615,4.46,4.4598,4.4592,4.4591,4.4586,4.4583,4.458,4.4555,4.4535,4.457,4.4537,4.4559,4.4559,4.4565,4.4565,4.4648,4.457,4.4569,4.4569,4.4569,0,4.4695,4.4711,4.4674,4.4682,4.4698,4.4668,4.4685,4.4671,4.4659,4.4663,4.4632,4.4637,4.4604,4.4606,4.4587,4.4599,4.4598,4.4588,4.4582,4.4589,4.459,4.4586,4.4581,4.4571,4.4571,4.457,4.457,0,4.4767,4.4744,4.4755,4.4732,4.4726,4.4739,4.4719,4.4725,4.4709,4.4715,4.4715,4.4688,4.4688,4.4663,4.4659,4.4645,4.4665,4.4655,4.4669,4.4665,4.4687,4.4685,4.4769,4.4777,4.4696,4.4697,4.4698,0,4.4807,4.4817,4.4795,4.4796,4.4788,4.479,4.4788,4.4759,4.4759,4.4745,4.4753,4.4751,4.4747,4.475,4.4729,4.4726,4.4713,4.4743,4.4712,4.4719,4.4711,4.4709,4.4709,4.4749,4.475,4.475,4.4751,0,4.4878,4.4866,4.4864,4.4859,4.4857,4.4852,4.4844,4.4847,4.4815,4.4816,4.4816,4.4814,4.4809,4.4807,4.4799,4.4789,4.4765,4.4762,4.4766,4.4772,4.4779,4.4773,4.4684,4.4759,4.4758,4.4758,4.4757,4.4757,4.4933,4.4941,4.4926,4.4925,4.4917,4.491,4.4915,4.4899,4.4898,4.4892,4.4876,4.4878,4.4865,4.4852,4.4845,4.4846,4.4831,4.4838,4.4839,4.4841,4.4844,4.4781,4.4845,4.4845,4.4844,4.4844,4.4844,0,4.5001,4.499,4.499,4.498,4.498,4.4958,4.4948,4.4949,4.4951,4.4942,4.4939,4.4938,4.4936,4.4917,4.4912,4.4917,4.4906,4.4917,4.4915,4.4912,4.4859,4.4854,4.4926,4.4926,4.4926,4.4926,4.4926,4.4926,4.5036,4.5047,4.5034,4.504,4.5029,4.5031,4.5027,4.5021,4.5013,4.5014,4.5012,4.5,4.4986,4.498,4.4977,4.4971,4.497,4.4984,4.4975,4.4924,4.4916,4.4909,4.4904,4.4985,4.4985,4.5028,4.5028,4.5029]}]]